Location: Engle Ridge Observatory
(44.8122°N, 85.4398°W)
Time: 13:00:06
(UTC-04:00)

Daily predictions for brighter satellites

Satellite Brightness Start Highest point End
(mag) Time Altitude Azimuth Time Altitude Azimuth Time Altitude Azimuth
Cosmos 1726 Rocket 3.5 19:54:26 10° S 19:58:44 66° E 20:03:02 10° NNE
USA 234 4.0 19:54:32 10° SSE 20:00:57 55° SW 20:07:22 10° WNW
CZ-4 R/B 3.9 19:57:49 10° SSW 20:01:30 30° W 20:05:13 10° NW
Cosmos 2181 Rocket 4.0 19:56:14 10° N 20:02:28 80° E 20:08:35 10° S
BREEZE M DEB (TANK) 3.7 19:51:56 10° WNW 20:02:36 86° NNE 20:06:01 10° ESE
ALOS 2.3 19:58:32 10° SSE 20:03:10 69° ENE 20:07:50 10° N
Cosmos 990 Rocket 4.2 19:59:11 10° NNW 20:04:21 78° WSW 20:09:29 10° SSE
SJ 16-02 2.7 20:02:02 10° N 20:05:22 21° ENE 20:08:40 10° ESE
Cosmos 1656 Rocket 3.7 20:00:04 10° NNW 20:05:46 78° ENE 20:11:20 10° SSE
Cosmos 1814 Rocket 4.0 20:01:55 10° SSW 20:07:05 87° ESE 20:12:15 10° NNE
NOAA 12 4.1 20:02:57 10° SSE 20:08:12 87° ENE 20:13:30 10° NNW
SJ-6B 3.5 20:05:37 10° SE 20:09:13 34° ENE 20:12:47 10° N
SPOT 3 Rocket 4.1 20:04:38 10° S 20:09:44 65° WSW 20:14:54 10° NNW
FENGYUN 3A 3.6 20:06:32 10° SSE 20:11:53 80° ENE 20:17:17 10° NNW
Cosmos 1953 4.2 20:12:09 10° ESE 20:13:31 12° E 20:14:54 10° ENE
H-2A R/B 3.1 20:10:48 10° SE 20:14:20 42° ENE 20:17:55 10° N
Cosmos 1125 Rocket 4.0 20:10:14 10° N 20:15:17 42° ENE 20:20:19 10° SE
Cosmos 2074 Rocket 4.2 20:09:52 10° SSE 20:15:49 50° E 20:21:47 10° NNE
FREGAT/IRIS 2.6 20:17:42 10° SSE 20:20:41 61° ENE 20:23:42 10° N
Cosmos 2228 3.0 20:16:28 10° S 20:20:49 77° E 20:25:08 10° NNE
Cosmos 1356 Rocket 3.4 20:17:06 10° N 20:21:24 68° ENE 20:25:41 10° SSE
Geosat 4.0 20:20:01 10° SSE 20:25:02 88° ENE 20:30:06 10° NNW
Envisat 4.1 20:21:07 10° ESE 20:25:15 26° ENE 20:29:23 10° N
Cosmos 1544 3.6 20:23:07 10° SSE 20:26:25 35° E 20:29:45 10° NNE
ATLAS 2AS CENTAUR R/B 3.9 20:23:23 10° NNW 20:30:38 34° NNE 20:36:22 14° E
Cosmos 1378 4.1 20:28:19 10° NNW 20:32:00 51° W 20:35:40 10° S
Cosmos 1707 3.9 20:28:16 10° NNW 20:32:04 47° W 20:35:50 10° SSW
COSMOS 2406 3.2 20:28:18 10° S 20:33:54 60° ESE 20:39:32 10° NNE
Meteor 1-22 Rocket 4.2 20:29:18 10° S 20:34:53 63° E 20:40:18 10° NNE
Meteor 2-5 Rocket 4.2 20:29:43 10° NNW 20:35:32 68° W 20:41:12 10° S
USA 81 4.4 20:31:04 10° N 20:36:21 70° W 20:41:35 10° S
Meteor 2-8 Rocket 4.5 20:31:49 10° N 20:37:53 60° ENE 20:43:54 10° SSE
Cosmos 1766 3.2 20:34:14 10° S 20:38:06 61° E 20:41:58 10° NNE
In-Cosmos 22 4.2 20:33:14 10° N 20:38:56 70° ENE 20:44:41 10° SSE
Cosmos 1812 Rocket 4.0 20:35:00 10° SSE 20:39:08 39° E 20:43:18 10° NNE
NOSS 3-1 (A) 4.2 20:32:52 10° NW 20:40:28 79° SW 20:48:53 10° SSE
Cosmos 841 Rocket 3.7 20:35:29 10° SSW 20:40:37 74° WNW 20:45:47 10° NNE
Cosmos 1674 3.8 20:37:55 10° NNE 20:41:00 24° ENE 20:41:51 22° E
GP-B 3.7 20:37:22 10° NNE 20:41:27 34° E 20:45:29 10° SSE
Resurs 01 Rocket 2.1 20:38:07 12° SE 20:41:49 39° ENE 20:45:56 10° N
Nadezhda 3 Rocket 4.3 20:36:57 10° N 20:43:01 47° ENE 20:48:59 10° SSE
MOS 1-B Rocket 4.2 20:40:33 10° SE 20:46:13 44° ENE 20:51:32 10° N
Cosmos 2058 Rocket 4.0 20:42:56 10° SSW 20:47:11 52° WNW 20:51:29 10° N
FengYun 1-2 T 4.4 20:42:57 10° SSE 20:48:33 81° WSW 20:54:08 10° NNW
SL-27 R/B 3.1 20:48:13 10° S 20:51:30 35° ESE 20:54:52 10° NE
Meteor 2-19 Rocket 4.4 20:46:27 10° S 20:52:21 57° E 20:58:16 10° NNE
Cosmos 540 Rocket 3.3 20:48:23 10° SSW 20:53:28 75° ESE 20:58:35 10° NNE
Cosmos 2184 Rocket 4.1 20:48:23 10° S 20:54:43 87° W 21:01:09 10° N
Elektron 1 3.6 20:53:03 10° NW 20:56:30 79° NE 20:57:32 36° SE
Cosmos 1758 3.7 20:54:14 10° SSE 20:58:00 41° E 21:01:46 10° NNE
HJ-1C 3.9 20:56:05 10° S 20:59:24 61° W 21:02:45 10° NNW
Cosmos 1610 Rocket 4.5 20:53:38 10° S 20:59:59 75° E 21:06:22 10° NNE
USA 186 3.1 21:02:04 18° NNE 21:02:04 18° NNE 21:02:55 10° N
Okean 3 Rocket 4.0 21:02:54 10° N 21:07:08 40° ENE 21:08:04 35° ESE
Cosmos 1805 3.1 21:06:01 10° S 21:09:55 85° E 21:13:50 10° N
Cosmos 1939 Rocket 3.2 21:13:42 40° ENE 21:13:44 40° ENE 21:17:28 10° N
SL-8 Rocket 4.5 21:14:55 31° ESE 21:16:28 35° E 21:21:58 10° NNE
CZ-2D R/B 3.4 21:13:42 15° S 21:16:45 69° W 21:20:34 10° NNW
Cosmos 292 Rocket 3.8 21:12:35 10° S 21:17:19 57° ESE 21:22:07 10° NNE
Cosmos 2278 4.0 21:12:45 10° NNW 21:18:17 49° ENE 21:20:04 36° ESE
KORONAS-FOTON 4.1 21:18:33 10° N 21:21:50 47° NE 21:21:50 47° NE
Cosmos 2322 Rocket 4.3 21:27:28 10° NNE 21:28:53 11° NE 21:29:40 11° NE
Cosmos 1470 4.3 21:31:43 24° NNE 21:31:43 24° NNE 21:33:31 10° NNE
Milstar 3 Cent rocket 4.1 21:29:37 10° SSW 21:30:39 11° S 21:30:39 11° S
Spot 2 Rocket 3.5 21:28:02 21° S 21:31:25 80° WSW 21:36:30 10° NNW
ISS -2.5 21:28:19 10° SW 21:30:17 33° SW 21:30:17 33° SW
BREEZE-M DEB (TANK) 3.6 21:30:36 10° WNW 21:31:29 21° WNW 21:31:29 21° WNW
Cosmos 962 Rocket 4.4 21:28:26 10° S 21:34:47 79° E 21:41:10 10° N
Cosmos 1656 3.8 21:29:13 10° NNW 21:34:48 54° ENE 21:35:49 48° E
Cosmos 1697 Rocket 3.1 21:32:41 10° NNW 21:38:04 42° ENE 21:38:32 41° ENE
Cosmos 1980 Rocket 3.3 21:35:00 10° N 21:39:50 28° NE 21:39:51 28° NE
Cosmos 1076 Rocket 3.4 21:38:51 10° N 21:43:06 78° NE 21:43:06 78° NE
SJ 16-02 2.4 21:40:01 10° NNW 21:44:10 43° WSW 21:46:14 25° SSW
Cosmos 1953 2.8 21:47:22 27° SSW 21:49:23 59° W 21:53:26 10° N
ERS-1 Rocket 3.9 21:52:11 35° NE 21:52:11 35° NE 21:55:47 10° N
YAOGAN 6 4.1 21:57:09 32° NNW 21:57:09 32° NNW 21:59:13 10° NNW
Cosmos 1818 4.4 21:50:40 10° NNW 21:55:33 37° NE 21:55:33 37° NE
SJ-11-01 4.3 21:57:06 68° SSW 21:57:33 75° WSW 22:02:18 10° NNW
Envisat 4.0 22:01:14 23° SSW 22:04:01 44° W 22:08:53 10° NNW
ARGOS 4.0 22:05:24 37° NE 22:05:24 37° NE 22:09:18 10° N
SL-16 R/B 4.0 22:03:55 10° N 22:07:07 18° NE 22:07:07 18° NE
NOAA 11 4.2 22:12:00 70° NNE 22:12:00 70° NNE 22:16:56 10° N
FALCON 9 R/B 3.7 22:13:35 10° WSW 22:15:43 24° SSW 22:15:43 24° SSW
Resurs 01 Rocket 3.9 22:15:42 13° SW 22:18:26 22° W 22:21:51 10° NW
ATLAS 2AS CENTAUR R/B 2.8 22:14:31 10° NW 22:22:35 84° SW 22:23:48 66° SSE
H-2A R/B 3.6 22:28:13 26° NNE 22:28:13 26° NNE 22:30:38 10° N
Cosmos 1959 Rocket 4.4 22:26:16 79° SW 22:26:36 82° W 22:32:55 10° N
Cosmos 2369 4.3 22:22:46 10° NW 22:28:12 48° WSW 22:28:37 47° WSW
Cosmos 2366 rocket 4.0 22:34:12 80° NW 22:34:12 80° NW 22:40:19 10° N
NOSS 3-4 (A) 4.4 22:27:58 10° NNW 22:34:23 41° NE 22:34:23 41° NE
NOSS 3-4 (C) 4.4 22:28:04 10° NNW 22:34:29 41° NE 22:34:29 41° NE
Cosmos 2218 Rocket 4.2 22:38:40 65° WSW 22:39:07 67° W 22:45:19 10° N
USA 267 4.4 22:48:03 31° NNE 22:49:19 33° N 22:55:01 10° NW
Cosmos 2082 Rocket 4.1 23:01:05 21° NNE 23:01:05 21° NNE 23:03:00 10° NNE
Cosmos 2322 Rocket 3.9 23:08:56 10° NNW 23:11:28 26° N 23:11:28 26° N
Cosmos 1697 Rocket 4.4 23:16:54 10° NW 23:20:16 27° WNW 23:20:16 27° WNW
Cosmos 2360 Rocket 4.3 23:17:41 10° N 23:19:35 18° N 23:19:35 18° N
Cosmos 1980 Rocket 3.8 23:18:38 10° NW 23:21:38 31° NW 23:21:38 31° NW
SL-16 R/B 4.3 23:47:02 10° NNW 23:48:58 22° NNW 23:48:58 22° NNW
